轨道通信卫星FM23星 (ORBCOMM FM23)

导读

ORBCOMM FM 23是美国轨道通信公司ORBCOMM运营的低地球轨道通信卫星,由轨道科学公司研发,于1998年9月23日发射。属于ORBCOMM星座组网卫星,质量约40千克,设计寿命4年,运行于近地轨道,主要服务机器对机器(M2M)通信与物联网数据传输,提供全球范围低成本窄带通信服务,是早期商用低轨通信星座的重要组成。

Basic Information
目录编号:
25477
目录名称:
ORBCOMM FM 23
国际标识:
1998-053C
轨道中心:
EARTH
卫星名称:
轨道通信卫星FM23星
卫星全名:
轨道通信卫星FM23星 (ORBCOMM FM23)
卫星状态:
在轨 (已飞行10219 天)
发射日期:
1998-09-23 UTC
国别 :
(ORB)
星等 :
--
This satellite is enrolled in the Space Conjunction Data Service (SCDS) and the current flight risk assessment level is: No High Risk
Orbit Information
数据来源 国际轨道数据 AOE轨道数据
星历时间 2026-09-15T17:13:10+0800
14小时前
查看轨道信息
2026-09-10T17:00:00+0800
5天前
查看轨道信息
半长轴 7141.336km 7141.363km
偏心率 0.0004041 0.0004118
轨道倾角 45.008° 45.008°
近地点辐角 303.547° 280.920°
升交点赤经 273.279° 297.048°
平近点角 56.500° 32.212°
近地点 760.313km 760.285km
远地点 766.085km 766.167km
周期 100.099分钟 100.099分钟
每日圈数 14.385785 14.385704
Detailed Information
固有亮度:
8
最大亮度:
6.9
平衡模式:
三轴稳定
覆盖范围:
全球
运营商:
轨道通信公司
运营商所在国:
美国
制造商(研发单位):
轨道ATK公司
制造商所在国:
美国
使用方式:
暂无
Satellite Introduction
轨道通信FM(Orbcomm FM)是一系列低地球轨道通信卫星,由美国卫星通信公司 Orbcomm运营。 截至2015年12月,已有63颗此类卫星绕地球运行。该卫星已退役。
2D Orbit Map
3D Orbit Map
Orbit Altitude Analysis Chart
Orbit Inclination Analysis Chart
Orbit Comprehensive Analysis Chart
View Comprehensive Chart
Conjunction Data List
Event ID Objects TCA Miss Dist (km) Collision Risk Probability Collision Risk Index (CRI) Action
CDM_260915-234702-250002-547729
2026-09-15T
23:47:02+0000
1.044 km
极远距离
1.540801E-5 中风险 0.59
Miss Distance Evolution Trend with All Objects Subscribe to Flight Safety Assessment
Collision Probability Evolution Trend with All Objects Subscribe to Flight Safety Assessment